This is the latest recevied weather packets stored in our database for station/object VA3JLF-1. If no packets are shown the sender has not sent any weather packets the latest 10 day(s).
| Time | Temp. | Humidity | Pressure | Rain* | Wind** | Luminosity | Snow |
|---|---|---|---|---|---|---|---|
| 1777710358 | 4.44° C | 84% | 1008.9 hPa | 0 mm | - | - | - |
| 1777709757 | 4.44° C | 82% | 1008.9 hPa | 0 mm | - | - | - |
| 1777709158 | 4.44° C | 82% | 1009.2 hPa | 0 mm | - | - | - |
| 1777708559 | 4.44° C | 80% | 1008.8 hPa | 0 mm | - | - | - |
| 1777707958 | 4.44° C | 79% | 1008.9 hPa | 0 mm | - | - | - |
| 1777707359 | 4.44° C | 79% | 1008.9 hPa | 0 mm | - | - | - |
| 1777706758 | 4.44° C | 80% | 1009 hPa | 0 mm | - | - | - |
| 1777706158 | 5° C | 79% | 1008.9 hPa | 0 mm | - | - | - |
| 1777705558 | 5° C | 81% | 1009 hPa | 0 mm | - | - | - |
| 1777704960 | 5° C | 79% | 1009 hPa | 0 mm | - | - | - |
| 1777704357 | 5° C | 82% | 1009 hPa | 0 mm | - | - | - |
| 1777703758 | 5° C | 82% | 1009.2 hPa | 0 mm | - | - | - |
| 1777703158 | 5.56° C | 87% | 1009.2 hPa | 0 mm | - | - | - |
| 1777702557 | 5° C | 88% | 1009.1 hPa | 0 mm | - | - | - |
| 1777701958 | 4.44° C | 97% | 1009.2 hPa | 0 mm | - | - | - |
| 1777701357 | 4.44° C | 97% | 1009.1 hPa | 0 mm | - | - | - |
| 1777700758 | 4.44° C | 97% | 1009.1 hPa | 0 mm | - | - | - |
| 1777700157 | 4.44° C | 96% | 1009.1 hPa | 0 mm | - | - | - |
| 1777699557 | 4.44° C | 96% | 1009.2 hPa | 0 mm | - | - | - |
| 1777698957 | 4.44° C | 96% | 1009.2 hPa | 0 mm | - | - | - |
| 1777698357 | 4.44° C | 97% | 1009.3 hPa | 0 mm | - | - | - |
| 1777697758 | 4.44° C | 97% | 1009.3 hPa | 0 mm | - | - | - |
| 1777697157 | 4.44° C | 97% | 1009.3 hPa | 0 mm | - | - | - |
| 1777696558 | 4.44° C | 97% | 1009.3 hPa | 0 mm | - | - | - |
| 1777695958 | 3.89° C | 98% | 1009.2 hPa | 0 mm | - | - | - |
* Rain latest hour (hover to see other rain measurements)
** Current wind speed in m/s (hover to see current wind gust speed)